Regional Weather Roundup
Issued by NWS

Home | Current Version | Previous Version | Text Only | Print | Product List | Glossary On
Versions: 1 2 3 4 5 6 7 8 9 10 11 12 13 14 15 16 17 18 19 20 21 22 23 24 25 26 27 28 29 30 31 32 33 34 35 36 37 38 39 40 41 42 43 44 45 46 47 48 49 50
000
ASUS44 KLUB 032010
RWRTX
WEST TEXAS WEATHER ROUNDUP
NATIONAL WEATHER SERVICE LUBBOCK TX
300 PM CDT SUN MAY 03 2015

NOTE: "FAIR" INDICATES FEW OR NO CLOUDS BELOW 12,000 FEET WITH NO
SIGNIFICANT WEATHER AND/OR OBSTRUCTIONS TO VISIBILITY.

TXZ004-006>008-010-012-014-016-OKZ002-032100-
TEXAS PANHANDLE/OKLAHOMA PANHANDLE

CITY           SKY/WX    TMP DP  RH WIND       PRES   REMARKS
AMARILLO       MOSUNNY   79  44  28 S29G36    29.92F
BORGER         SUNNY     87  42  20 S13G25    29.88F
CANADIAN       SUNNY     85  54  33 S13G24    29.86F
DALHART        MOSUNNY   84  39  20 SW8       29.91F
DUMAS          MOSUNNY   84  45  24 SW14G20   29.90F
GUYMON         SUNNY     87  44  22 SE7       29.84F
HEREFORD       PTSUNNY   82  46  28 MISG      29.93F
PAMPA          SUNNY     85  45  25 S16       29.91F
PERRYTON       SUNNY     87  49  27 SW6       29.85F
$$

TXZ026-029-035-045-048-032100-
SOUTHERN PANHANDLE/SOUTH PLAINS/ROLLING PLAINS

CITY           SKY/WX    TMP DP  RH WIND       PRES   REMARKS
CHILDRESS      SUNNY     84  51  31 S23G32    29.89F
SEMINOLE       SUNNY     88  48  25 S12G20    29.93F
LUBBOCK        MOSUNNY   87  46  24 S23G29    29.91F
PLAINVIEW      MOSUNNY   83  48  28 S21       29.91F
SNYDER         SUNNY     82  54  38 SE15G22   29.95F
$$

TXZ052-054-060>062-072-078-127-140-154-169-032100-
PERMIAN BASIN/CONCHO VALLEY/BIG COUNTRY/EDWARDS PLATEAU

CITY           SKY/WX    TMP DP  RH WIND       PRES   REMARKS
ABILENE        MOSUNNY   81  57  43 S12G21    29.96F
BIG SPRING     SUNNY     86  45  23 SE22      29.95F
BRADY          SUNNY     82  52  34 SE13      29.97F
BROWNWOOD      SUNNY     82  57  42 S10       29.97F
JUNCTION       MOSUNNY   81  55  40 S12G24    29.98F
MIDLAND        SUNNY     85  54  34 SE17G26   29.93F
ODESSA         SUNNY     86  51  29 S16       29.93F
SAN ANGELO     SUNNY     82  56  40 S15G23    29.96F
SONORA         MOSUNNY   77  57  50 S13       30.03F
SWEETWATER     SUNNY     81  53  38 S13G18    29.99F
WINK           MOSUNNY   87  49  26 SE12G18   29.89F
$$

TXZ055-058-074-075-080-082-032100-
FAR WEST/SOUTHWEST MOUNTAINS/TRANS PECOS

CITY           SKY/WX    TMP DP  RH WIND       PRES   REMARKS
ALPINE         MOSUNNY   84  35  17 SE12      30.02F
DRYDEN           N/A     81  60  48 E18G24    29.94F
EL PASO        PTSUNNY   85  33  15 W12       29.93F
FORT STOCKTON  SUNNY     84  50  30 SE16G23   29.92F
GUADALUPE PASS MOSUNNY   80  34  19 SW10      30.03F
MARFA          SUNNY     82  39  21 SE15      30.02F
PECOS          MOSUNNY   90  44  19 E10G18    29.86F
PRESIDIO       FAIR      91  38  15 E6        29.86F
$$

TXZ014-016-019-021>030-083-032100
TEXAS TECH WEST TEXAS MESONET/TEXAS PANHANDLE/NORTHERN SOUTH PLAINS

CITY           SKY/WX    TMP DP  RH WIND       PRES   REMARKS
ABERNATHY 5ENE   N/A     85  46  26 S22G31    29.93F
AMARILLO 9NNE    N/A     85  47  26 S9        29.90S
AMARILLO 7SSE    N/A     81  49  31 S8        29.93F
AMHERST 1NE      N/A     82  44  25 S22       29.93S
BOOTLEG 11WNW    N/A     81  43  25 S12       29.96F
CANADIAN 6E      N/A     85  53  32 S16       29.86S
CAPROCK CYN SP   N/A     85  46  26 S18       29.90F
CHILDRESS 2NNE   N/A     85  50  29 S22       29.89F
CLARENDON 2WSW   N/A     86  45  23 S20       29.89F
CLAUDE 12SW      N/A     84  50  30 SW5       29.92F
DIMMITT 2NE      N/A     83  46  27 S17       29.93F
FLOYDADA 2NNE    N/A     82  47  28 S18       29.93F
FRIONA 2NE       N/A     84  40  20 SE15      29.93F
GOODLETT 3W      N/A     85  50  29 S20       29.88F
HART 3N          N/A     84  41  22 S20       29.92F
HEREFORD 2NW     N/A     83  43  24 S15       29.92F
MCLEAN 1E        N/A     83  49  30 SE17      29.89F
MEMPHIS 1NE      N/A     85  49  28 S15       29.88F
MULESHOE 2SSW    N/A     85  41  21 S13       29.92F
OLTON 6S         N/A     84  45  25 S17       29.92F
PALO DURO SP     N/A     85  51  30 SE5       29.93F
PAMPA 2E         N/A     83  49  31 S13       29.91S
PLAINVIEW 1S     N/A     83  46  27 S17       29.92S
SILVERTON 7ESE   N/A     84  45  25 S18       29.92F
TULIA 2ENE       N/A     85  44  23 S18       29.92S
TURKEY 2WSW      N/A     86  46  25 S21       29.89S
UMBARGER 3NNE    N/A     84  49  29 S15       29.93F
$$

TXZ033>036-039>041-045>048-032100
TEXAS TECH WEST TEXAS MESONET/SOUTH PLAINS

CITY           SKY/WX    TMP DP  RH WIND       PRES   REMARKS
AIKEN 3WSW       N/A     84  51  31 S22       29.93F
ANDREWS 2NE      N/A     87  45  23 S12G22    29.92F
ANTON 6SSW       N/A     86  48  26 S17       29.92F
BROWNFIELD 2S    N/A     85  45  23 S17       29.92F
GAIL 2ESE        N/A     86  47  25 SE14      29.91F
LAMESA 2SE       N/A     86  48  26 SE16      29.93F
LEVELLAND 4S     N/A     85  45  24 S17G28    29.93F
LUBBOCK 3WNW     N/A     87  46  24 SE15G25   29.92F
MORTON 1ENE      N/A     84  43  23 S12G22    29.92F
ODONNELL 1N      N/A     86  42  21 S12G23    29.92F
PLAINS 3N        N/A     83  46  26 S15       29.94F
RALLS 1SE        N/A     82  51  34 S18       29.95S
REESE CENTER     N/A     85  45  24 S17       29.92F
SEAGRAVES 1SW    N/A     85  49  28 S14       29.92F
SEMINOLE 2NNE    N/A     86  46  24 SE15      29.92F
SLATON 2NE       N/A     83  47  28 S18       29.93F
SNYDER 3E        N/A     83  52  34 S15       29.93F
SUNDOWN 8SW      N/A     85  48  27 S13       29.93F
TAHOKA 3NNE      N/A     85  45  24 SE20      29.92F
WOLFFORTH 6SSW   N/A     87  47  25 S17       29.92F
$$

TXZ031-032-036>038-042>044-032100-
TEXAS TECH WEST TEXAS MESONET/ROLLING PLAINS

CITY           SKY/WX    TMP DP  RH WIND       PRES   REMARKS
ASPERMONT 3NE    N/A     84  54  35 S14       29.92F
FLUVANNA 3WNW    N/A     83  49  30 SE17      29.93F
GRAHAM 5SSW      N/A     84  48  28 SE16G25   29.92F
GUTHRIE 10WSW    N/A     84  52  33 S18       29.91F
HASKELL 1NW      N/A     80  54  40 S14       29.93F
JAYTON 1SSE      N/A     82  53  36 S12       29.92F
KNOX CITY 3NW    N/A     83  52  33 S15       29.92F
LK A HENRY 1NW   N/A     84  55  36 S10       29.91F
NORTHFIELD 1S    N/A     86  51  29 S20G30    29.88S
ODELL 4ENE       N/A     83  57  40 SE17      29.91F
PADUCAH 10SW     N/A     84  52  32 S17       29.90F
POST 1NE         N/A     85  52  32 S14       29.92F
RRING SPRGS 3N   N/A     82  54  38 S17       29.92F
SEYMOUR 3NW      N/A     83  52  34 SE13G22   29.92F
SPUR 1W          N/A     82  51  34 S15       29.91F
WEINERT 2NNE     N/A     82  57  42 S15       29.93F
WHITE RVR 6NE    N/A     81  55  40 S17       29.93F
$$

TXZ052-054-060>062-072-078-127-140-154-169-032100-
TEXAS TECH WEST TEXAS MESONET/PERMIAN BASIN/
CONCHO VALLEY/BIG COUNTRY/EDWARDS PLATEAU

CITY           SKY/WX    TMP DP  RH WIND       PRES   REMARKS
COYANOSA 2N      N/A     90  50  25 E15       29.89S
JUNCTION 1SSW    N/A     82  57  42 S10       29.98F
MERTZON 3NNE     N/A     79  57  47 S14       29.98S
SAN ANGELO 7NW   N/A     82  53  36 SE14      29.96F
STRLNG CT 4WSW   N/A     83  53  35 SE10      29.95F
ST LAWRNCE 5SW   N/A     82  53  36 S16       29.95F
SWEETWATR 11SW   N/A     81  53  38 S17       29.97F
WALL 1E          N/A     82  52  35 S13       29.96F
$$

TXZ055-058-074-075-080-082-032100-
TEXAS TECH WEST TEXAS MESONET/FAR WEST/SOUTHWEST MOUNTAINS/TRANS PECOS

CITY           SKY/WX    TMP DP  RH WIND       PRES   REMARKS
PRSMN GAP BBNP   N/A     86  52  30 NE16      29.90F
$$


USA.gov is the U.S. government's official web portal to all federal, state and local government web resources and services.